Thomson, GA

6:36 AM EDT on March 30, 2017 (GMT -0400)
Thomson-McDuffie County

Weather History for KHQU - May, 2013

Change the Weather History Date:

Saturday, May 4, 2013

  Actual Average (KDNL) Record (KDNL)
Temperature  
Mean Temperature 56 °F -  
Max Temperature 61 °F 78 °F 88 °F (2014)
Min Temperature 51 °F 58 °F 46 °F (2004)
Degree Days  
Heating Degree Days 9    
Growing Degree Days 6 (Base 50)    
Moisture  
Dew Point 55 °F    
Average Humidity 94    
Maximum Humidity 100    
Minimum Humidity 74    
Precipitation  
Precipitation 0.00 in - - ()
Sea Level Pressure  
Sea Level Pressure 29.98 in    
Wind  
Wind Speed 12 mph (ENE)    
Max Wind Speed 22 mph    
Max Gust Speed 26 mph    
Visibility 8 miles    
Events      
Averages and records for this station are not official NWS values.
T = Trace of Precipitation, MM = Missing Value Source: NWS Daily Summary

Daily Weather History Graph

Daily Weather History Graph

Search for Another Location

Airport or City:

Trip Planner

Search our weather history database for the weather conditions in past years. The results will help you decide how hot, cold, wet, or windy it might be!

Date:

Astronomy

May. 04, 2013 Rise Set
Actual Time 6:38 AM EDT 8:15 PM EDT
Civil Twilight 6:11 AM EDT 8:42 PM EDT
Nautical Twilight 5:39 AM EDT 9:14 PM EDT
Astronomical Twilight 5:06 AM EDT 9:48 PM EDT
Moon 3:20 AM EDT (5/4) 3:26 PM EDT (5/4)
Length of Visible Light 14h 30m
Length of Day
13h 37m
Waning Crescent, 27% of the Moon is Illuminated
May 4
Waning Crescent
May 9
New
May 18
First Quarter
May 25
Full
May 31
Last Quarter

Hourly Weather History & Observations

Time (EDT) Temp. Dew Point Humidity Pressure Visibility Wind Dir Wind Speed Gust Speed Precip Events Conditions
12:15 AM 61.0 °F 56.3 °F 85% 30.06 in 10.0 mi East 11.5 mph - N/A   Overcast
12:35 AM 61.2 °F 56.3 °F 84% 30.05 in 10.0 mi East 16.1 mph 20.7 mph N/A   Overcast
12:55 AM 61.2 °F 55.8 °F 82% 30.05 in 10.0 mi East 12.7 mph 16.1 mph N/A   Overcast
1:15 AM 61.2 °F 55.4 °F 81% 30.04 in 10.0 mi East 13.8 mph 21.9 mph N/A   Overcast
1:35 AM 61.0 °F 55.0 °F 81% 30.03 in 10.0 mi ENE 15.0 mph 21.9 mph N/A   Overcast
1:55 AM 60.8 °F 54.9 °F 81% 30.03 in 10.0 mi East 11.5 mph 19.6 mph N/A   Overcast
2:15 AM 60.6 °F 54.5 °F 80% 30.02 in 10.0 mi ENE 13.8 mph 18.4 mph N/A   Overcast
2:35 AM 59.9 °F 54.0 °F 81% 30.01 in 10.0 mi ENE 12.7 mph 17.3 mph N/A   Overcast
2:55 AM 59.9 °F 51.4 °F 74% 30.01 in 10.0 mi East 9.2 mph 19.6 mph N/A   Overcast
3:15 AM 59.4 °F 51.4 °F 75% 30.01 in 10.0 mi NE 6.9 mph 16.1 mph N/A   Overcast
3:35 AM 59.0 °F 51.3 °F 75% 30.01 in 10.0 mi ENE 15.0 mph 23.0 mph N/A   Overcast
3:55 AM 58.5 °F 50.9 °F 76% 30.01 in 10.0 mi East 21.9 mph 25.3 mph N/A   Overcast
4:15 AM 57.0 °F 51.8 °F 83% 30.01 in 10.0 mi ENE 9.2 mph 19.6 mph N/A   Overcast
4:35 AM 56.5 °F 51.8 °F 84% 30.01 in 10.0 mi ENE 12.7 mph 18.4 mph N/A   Overcast
4:55 AM 55.8 °F 52.7 °F 89% 30.01 in 10.0 mi ENE 11.5 mph 16.1 mph N/A   Overcast
5:15 AM 55.4 °F 51.3 °F 86% 30.01 in 10.0 mi NE 10.4 mph 19.6 mph N/A   Overcast
5:35 AM 54.3 °F 51.1 °F 89% 30.01 in 10.0 mi ENE 13.8 mph 17.3 mph N/A   Overcast
5:55 AM 54.1 °F 50.9 °F 89% 30.01 in 10.0 mi ENE 10.4 mph 17.3 mph N/A   Overcast
6:15 AM 53.2 °F 50.7 °F 91% 30.02 in 10.0 mi NE 8.1 mph 17.3 mph N/A   Overcast
6:35 AM 52.7 °F 50.9 °F 94% 30.03 in 10.0 mi ENE 10.4 mph - N/A   Overcast
6:55 AM 52.7 °F 50.5 °F 92% 30.03 in 10.0 mi ENE 10.4 mph - N/A   Overcast
7:15 AM 52.7 °F 50.5 °F 92% 30.03 in 10.0 mi ENE 10.4 mph - N/A   Overcast
7:35 AM 52.7 °F 50.5 °F 92% 30.04 in 7.0 mi ENE 9.2 mph - N/A   Overcast
7:55 AM 51.8 °F 51.3 °F 98% 30.03 in 5.0 mi ENE 6.9 mph - N/A   Overcast
8:15 AM 51.6 °F 51.6 °F 100% 30.03 in 4.0 mi ENE 11.5 mph 17.3 mph N/A   Overcast
8:35 AM 51.8 °F 51.8 °F 100% 30.03 in 5.0 mi ENE 10.4 mph - N/A   Overcast
8:55 AM 52.0 °F 52.0 °F 100% 30.03 in 7.0 mi ENE 9.2 mph - N/A   Overcast
9:15 AM 52.7 °F 52.3 °F 99% 30.03 in 10.0 mi ENE 11.5 mph - N/A   Overcast
9:35 AM 53.2 °F 52.5 °F 97% 30.02 in 10.0 mi ENE 12.7 mph 19.6 mph N/A   Overcast
10:15 AM 54.9 °F 52.5 °F 92% 30.02 in 10.0 mi ENE 15.0 mph 21.9 mph N/A   Overcast
10:35 AM 55.6 °F 52.5 °F 89% 30.01 in 10.0 mi ENE 11.5 mph 20.7 mph N/A   Overcast
10:55 AM 56.1 °F 52.7 °F 88% 30.01 in 10.0 mi ENE 12.7 mph 25.3 mph N/A   Overcast
11:15 AM 55.9 °F 52.9 °F 89% 30.01 in 10.0 mi ENE 12.7 mph 20.7 mph N/A   Overcast
11:35 AM 55.0 °F 53.6 °F 95% 30.03 in 7.0 mi ENE 11.5 mph - N/A   Overcast
11:55 AM 54.3 °F 54.0 °F 99% 30.02 in 7.0 mi ENE 9.2 mph - N/A   Overcast
12:15 PM 54.1 °F 54.1 °F 100% 30.00 in 4.0 mi ENE 11.5 mph 16.1 mph N/A   Overcast
12:35 PM 54.5 °F 54.5 °F 100% 30.00 in 5.0 mi ENE 9.2 mph - N/A   Overcast
12:55 PM 54.5 °F 54.5 °F 100% 29.98 in 5.0 mi ENE 11.5 mph - N/A   Overcast
1:15 PM 55.4 °F 55.4 °F 100% 29.99 in 7.0 mi ENE 9.2 mph - N/A   Overcast
1:35 PM 55.6 °F 55.6 °F 100% 29.99 in 10.0 mi ENE 10.4 mph - N/A   Overcast
1:55 PM 55.4 °F 55.4 °F 100% 30.00 in 10.0 mi NE 9.2 mph - N/A   Overcast
2:15 PM 55.4 °F 55.4 °F 100% 29.98 in 7.0 mi NE 10.4 mph 18.4 mph N/A   Overcast
2:35 PM 55.4 °F 55.4 °F 100% 29.98 in 7.0 mi ENE 8.1 mph - N/A   Overcast
2:55 PM 55.4 °F 55.4 °F 100% 29.96 in 3.0 mi ENE 11.5 mph 21.9 mph N/A   Overcast
3:15 PM 55.8 °F 55.8 °F 100% 29.96 in 2.5 mi ENE 11.5 mph - N/A   Overcast
3:35 PM 56.3 °F 56.3 °F 100% 29.95 in 4.0 mi ENE 13.8 mph 19.6 mph N/A   Overcast
3:55 PM 56.5 °F 56.5 °F 100% 29.95 in 4.0 mi East 13.8 mph 20.7 mph N/A   Overcast
4:15 PM 56.7 °F 56.7 °F 100% 29.94 in 4.0 mi ENE 10.4 mph 19.6 mph N/A   Overcast
4:35 PM 56.8 °F 56.8 °F 100% 29.94 in 4.0 mi ENE 13.8 mph 21.9 mph N/A   Overcast
4:55 PM 56.7 °F 56.7 °F 100% 29.94 in 2.0 mi East 15.0 mph 21.9 mph N/A   Overcast
5:15 PM 56.8 °F 56.8 °F 100% 29.91 in 4.0 mi ENE 16.1 mph 20.7 mph N/A   Overcast
5:35 PM 57.0 °F 57.0 °F 100% 29.91 in 4.0 mi East 12.7 mph 23.0 mph N/A   Overcast
5:55 PM 57.2 °F 57.2 °F 100% 29.91 in 4.0 mi East 13.8 mph 23.0 mph N/A   Overcast
6:15 PM 57.2 °F 57.2 °F 100% 29.91 in 7.0 mi East 12.7 mph 18.4 mph N/A   Overcast
6:35 PM 57.2 °F 57.2 °F 100% 29.91 in 2.5 mi East 15.0 mph 23.0 mph N/A   Overcast
6:55 PM 57.4 °F 57.4 °F 100% 29.90 in 7.0 mi East 11.5 mph 24.2 mph N/A   Overcast
7:15 PM 57.7 °F 57.7 °F 100% 29.91 in 10.0 mi East 5.8 mph 10.4 mph N/A   Overcast
7:35 PM 57.9 °F 57.9 °F 100% 29.89 in 5.0 mi East 13.8 mph 18.4 mph N/A   Overcast
7:55 PM 58.1 °F 58.1 °F 100% 29.90 in 5.0 mi East 13.8 mph 26.5 mph N/A   Overcast
8:15 PM 58.1 °F 58.1 °F 100% 29.90 in 10.0 mi East 13.8 mph 21.9 mph N/A   Overcast
8:35 PM 57.9 °F 57.9 °F 100% 29.89 in 7.0 mi East 12.7 mph 24.2 mph N/A   Overcast
8:55 PM 58.1 °F 58.1 °F 100% 29.91 in 10.0 mi East 10.4 mph 18.4 mph N/A   Overcast
9:15 PM 58.1 °F 58.1 °F 100% 29.93 in 10.0 mi East 9.2 mph - N/A   Overcast
9:35 PM 58.1 °F 58.1 °F 100% 29.94 in 7.0 mi ENE 9.2 mph 18.4 mph N/A   Overcast
9:55 PM 58.1 °F 58.1 °F 100% 29.93 in 5.0 mi East 9.2 mph 16.1 mph N/A   Overcast
10:15 PM 58.1 °F 58.1 °F 100% 29.93 in 7.0 mi ENE 11.5 mph 18.4 mph N/A   Overcast
10:35 PM 58.1 °F 58.1 °F 100% 29.91 in 5.0 mi ENE 11.5 mph 19.6 mph N/A   Overcast
10:55 PM 58.1 °F 58.1 °F 100% 29.91 in 10.0 mi ENE 8.1 mph 18.4 mph N/A   Overcast
11:15 PM 58.1 °F 58.1 °F 100% 29.92 in 3.0 mi ENE 11.5 mph 17.3 mph N/A   Overcast
11:35 PM 58.1 °F 58.1 °F 100% 29.91 in 5.0 mi East 10.4 mph 17.3 mph N/A   Overcast
11:55 PM 58.1 °F 58.1 °F 100% 29.91 in 7.0 mi East 5.8 mph - N/A   Overcast